Location: Zapote
(9.9191°N, 84.0597°W)
Time: 04:29:29
(UTC-06:00)

Hubble Space Telescope - Pass Details

Date: 31 January 2021
Orbit: 536 x 539 km, 28.5° (Epoch: 28 February)

Event Time Altitude Azimuth Distance (km) Brightness Sun altitude
Rises 19:48:30 0° 268° (W) 2,670 5.4 -31.1°
Reaches altitude 10° 19:51:46 10° 241° (WSW) 1,781 4.2 -31.9°
Enters shadow 19:53:44 13° 212° (SSW) 1,571 3.6 -32.4°
